Date String (YYYY-MM-DD hh:mm:ss) UTC,Instrument flags,absolute air pressure of the measurement (hPa),sample flow rate (lpm),inlet stack bypass flow (lpm),air temperature of the measurement (°C),ambient temperature measured by the external sensor (°C),aerosol sample conditioner tube jacket temperature (°C),OPC LED temperature (°C),internal box temperature (°C),relative humidity of the measurement (%),span deviation,mass concentration of particles derived from Lorenz-Mie calculation of OPC scattering (μg/m³),mass concentration of particles derived from Lorenz-Mie calculation of OPC scattering (μg/m³),mass concentration of particles derived from Lorenz-Mie calculation of OPC scattering (μg/m³)
DateTimeUTC,F1_M11,P_M11,Q1_M11,Q2_M11,T1_M11,T2_M11,T3_M11,T4_M11,T5_M11,U1_M11,ZSPAN_M11,X0_M11,X2_M11,X1_M11
2024-01-26 06:00:00,SystemResetWarning,0828.3,5.00,000.00,023.0,022.0,000.0,031.4,024.4,15.5,0003.1,0012.56,0007.34,0006.90
2024-01-26 06:01:00,SystemResetWarning,0828.3,5.00,000.00,023.0,022.0,000.0,031.4,024.4,15.5,0003.5,0012.40,0007.31,0006.90
2024-01-26 06:02:00,SystemResetWarning,0828.3,5.00,000.00,023.0,022.0,000.0,031.4,024.4,15.5,0003.6,0012.44,0007.33,0006.89
2024-01-26 06:03:00,SystemResetWarning,0828.3,5.00,000.00,023.0,022.0,000.0,031.4,024.4,15.5,0003.6,0012.28,0007.31,0006.89
2024-01-26 06:04:00,SystemResetWarning,0828.3,4.99,000.00,023.0,022.0,000.0,031.4,024.4,15.5,0003.4,0012.38,0007.35,0006.90
2024-01-26 06:05:00,SystemResetWarning,0828.4,5.01,000.00,023.0,022.0,000.0,031.4,024.4,15.5,0003.5,0012.31,0007.37,0006.90
2024-01-26 06:06:00,SystemResetWarning,0828.4,5.01,000.00,023.0,022.0,000.0,031.4,024.4,15.5,0003.9,0012.41,0007.38,0006.91
2024-01-26 06:07:00,SystemResetWarning,0828.4,5.01,000.00,023.0,022.0,000.0,031.4,024.4,15.5,0004.0,0013.31,0007.36,0006.90
2024-01-26 06:08:00,SystemResetWarning,0828.4,5.00,000.00,023.0,022.0,000.0,031.4,024.4,15.5,0004.0,0013.32,0007.39,0006.89
2024-01-26 06:09:00,SystemResetWarning,0828.4,4.99,000.00,023.0,022.0,000.0,031.4,024.4,15.5,0004.0,0013.20,0007.40,0006.91
2024-01-26 06:10:00,SystemResetWarning,0828.4,4.99,000.00,023.0,022.0,000.0,031.4,024.4,15.5,0004.1,0013.59,0007.39,0006.92
2024-01-26 06:11:00,SystemResetWarning,0828.4,5.00,000.00,023.0,022.0,000.0,031.4,024.4,15.5,0004.3,0013.33,0007.42,0006.94
2024-01-26 06:12:00,SystemResetWarning,0828.4,5.01,000.00,023.0,021.9,000.0,031.4,024.4,15.6,0004.2,0013.16,0007.44,0006.95
2024-01-26 06:13:00,SystemResetWarning,0828.4,5.01,000.00,023.0,021.9,000.0,031.4,024.4,15.6,0004.4,0013.58,0007.42,0006.95
2024-01-26 06:14:00,SystemResetWarning,0828.4,5.00,000.00,023.0,021.9,000.0,031.4,024.4,15.6,0004.3,0013.64,0007.42,0006.94
2024-01-26 06:15:00,SystemResetWarning,0828.4,5.00,000.00,023.0,021.9,000.0,031.3,024.3,15.6,0004.1,0013.84,0007.42,0006.93
2024-01-26 06:16:00,SystemResetWarning,0828.4,5.00,000.00,023.0,021.9,000.0,031.3,024.3,15.6,0004.2,0013.87,0007.40,0006.93
2024-01-26 06:17:00,SystemResetWarning,0828.4,4.99,000.00,023.0,021.9,000.0,031.3,024.4,15.6,0004.0,0014.37,0007.39,0006.92
2024-01-26 06:18:00,SystemResetWarning,0828.4,5.00,000.00,023.0,021.9,000.0,031.3,024.3,15.7,0003.9,0014.31,0007.39,0006.91
2024-01-26 06:19:00,SystemResetWarning,0828.4,4.99,000.00,023.0,021.9,000.0,031.3,024.4,15.7,0003.8,0014.32,0007.38,0006.91
2024-01-26 06:20:00,SystemResetWarning,0828.4,5.00,000.00,023.0,021.9,000.0,031.3,024.3,15.7,0003.8,0014.54,0007.34,0006.91
2024-01-26 06:21:00,SystemResetWarning,0828.4,5.00,000.00,023.0,021.9,000.0,031.3,024.3,15.7,0003.9,0015.57,0007.36,0006.91
2024-01-26 06:22:00,SystemResetWarning,0828.4,5.01,000.00,023.0,021.9,000.0,031.3,024.3,15.7,0003.9,0015.03,0007.38,0006.91
2024-01-26 06:23:00,SystemResetWarning,0828.4,5.01,000.00,022.9,021.9,000.0,031.3,024.3,15.7,0003.6,0014.71,0007.35,0006.89
2024-01-26 06:24:00,SystemResetWarning,0828.4,5.00,000.00,022.9,021.9,000.0,031.3,024.3,15.7,0003.5,0014.52,0007.36,0006.90
2024-01-26 06:25:00,SystemResetWarning,0828.4,5.01,000.00,022.9,021.8,000.0,031.3,024.3,15.7,0003.4,0013.96,0007.35,0006.91
2024-01-26 06:26:00,SystemResetWarning,0828.4,5.00,000.00,022.9,021.8,000.0,031.3,024.3,15.7,0003.3,0013.92,0007.34,0006.91
2024-01-26 06:27:00,SystemResetWarning,0828.4,5.00,000.00,022.9,021.8,000.0,031.3,024.3,15.7,0003.3,0013.68,0007.31,0006.91
2024-01-26 06:28:00,SystemResetWarning,0828.4,5.00,000.00,022.9,021.8,000.0,031.3,024.3,15.8,0003.2,0013.42,0007.29,0006.90
2024-01-26 06:29:00,SystemResetWarning,0828.4,5.00,000.00,022.9,021.8,000.0,031.3,024.3,15.8,0002.9,0013.41,0007.25,0006.87
2024-01-26 06:30:00,SystemResetWarning,0828.4,5.00,000.00,022.9,021.8,000.0,031.3,024.3,15.7,0003.0,0013.46,0007.22,0006.85
2024-01-26 06:31:00,SystemResetWarning,0828.4,5.00,000.00,022.9,021.8,000.0,031.3,024.3,15.8,0003.2,0013.42,0007.19,0006.82
2024-01-26 06:32:00,SystemResetWarning,0828.4,4.99,000.00,022.9,021.8,000.0,031.3,024.3,15.8,0003.4,0012.33,0007.14,0006.78
2024-01-26 06:33:00,SystemResetWarning,0828.4,5.00,000.00,022.9,021.8,000.0,031.3,024.3,15.8,0003.2,0012.16,0007.09,0006.73
2024-01-26 06:34:00,SystemResetWarning,0828.4,5.00,000.00,022.9,021.8,000.0,031.3,024.3,15.8,0003.3,0012.04,0007.05,0006.69
2024-01-26 06:35:00,SystemResetWarning,0828.4,5.00,000.00,022.9,021.8,000.0,031.2,024.3,15.8,0003.5,0012.05,0007.01,0006.64
2024-01-26 06:36:00,SystemResetWarning,0828.4,5.00,000.00,022.9,021.8,000.0,031.2,024.3,15.8,0003.7,0012.07,0006.98,0006.56
2024-01-26 06:37:00,SystemResetWarning,0828.4,5.00,000.00,022.9,021.8,000.0,031.2,024.3,15.8,0003.8,0012.07,0006.92,0006.51
2024-01-26 06:38:00,SystemResetWarning,0828.4,5.01,000.00,022.9,021.8,000.0,031.2,024.2,15.8,0003.8,0012.02,0006.89,0006.45
2024-01-26 06:39:00,SystemResetWarning,0828.4,5.01,000.00,022.9,021.8,000.0,031.2,024.2,15.8,0003.9,0011.91,0006.84,0006.41
2024-01-26 06:40:00,SystemResetWarning,0828.4,5.00,000.00,022.9,021.7,000.0,031.2,024.2,15.9,0004.3,0011.69,0006.79,0006.37
2024-01-26 06:41:00,SystemResetWarning,0828.4,5.00,000.00,022.8,021.8,000.0,031.2,024.2,15.9,0004.2,0010.83,0006.74,0006.34
2024-01-26 06:42:00,SystemResetWarning,0828.4,5.00,000.00,022.8,021.7,000.0,031.2,024.2,15.8,0004.0,0010.63,0006.69,0006.32
2024-01-26 06:43:00,SystemResetWarning,0828.4,5.00,000.00,022.8,021.7,000.0,031.2,024.2,15.8,0003.7,0010.68,0006.67,0006.28
2024-01-26 06:44:00,SystemResetWarning,0828.4,4.99,000.00,022.8,021.7,000.0,031.2,024.2,15.8,0003.8,0010.26,0006.64,0006.25
2024-01-26 06:45:00,SystemResetWarning,0828.4,5.00,000.00,022.8,021.7,000.0,031.2,024.2,15.8,0003.9,0010.11,0006.59,0006.22
2024-01-26 06:46:00,SystemResetWarning,0828.4,5.01,000.00,022.8,021.7,000.0,031.2,024.2,15.8,0003.5,0009.94,0006.51,0006.18
2024-01-26 06:47:00,SystemResetWarning,0828.4,5.00,000.00,022.8,021.7,000.0,031.2,024.2,15.9,0003.3,0010.12,0006.48,0006.17
2024-01-26 06:48:00,SystemResetWarning,0828.4,5.01,000.00,022.8,021.7,000.0,031.2,024.2,15.9,0003.5,0010.25,0006.46,0006.14
2024-01-26 06:49:00,SystemResetWarning,0828.4,5.00,000.00,022.8,021.7,000.0,031.2,024.2,15.9,0003.5,0010.81,0006.44,0006.13
2024-01-26 06:50:00,SystemResetWarning,0828.4,4.99,000.00,022.8,021.7,000.0,031.2,024.2,16.0,0003.6,0010.83,0006.46,0006.14
2024-01-26 06:51:00,SystemResetWarning,0828.5,5.00,000.00,022.8,021.7,000.0,031.2,024.2,16.0,0003.5,0010.40,0006.46,0006.16
2024-01-26 06:52:00,SystemResetWarning,0828.5,4.99,000.00,022.8,021.8,000.0,031.2,024.2,15.9,0003.4,0010.21,0006.48,0006.18
2024-01-26 06:53:00,SystemResetWarning,0828.5,5.00,000.00,022.8,021.8,000.0,031.2,024.2,15.9,0003.3,0010.38,0006.55,0006.22
2024-01-26 06:54:00,SystemResetWarning,0828.5,5.01,000.00,022.8,021.7,000.0,031.2,024.2,15.9,0002.8,0010.39,0006.59,0006.26
2024-01-26 06:55:00,SystemResetWarning,0828.5,5.00,000.00,022.8,021.7,000.0,031.2,024.2,15.9,0002.4,0010.44,0006.64,0006.31
2024-01-26 06:56:00,SystemResetWarning,0828.6,5.01,000.00,022.8,021.8,000.0,031.1,024.2,16.0,0002.2,0010.65,0006.73,0006.37
2024-01-26 06:57:00,SystemResetWarning,0828.6,5.00,000.00,022.8,021.8,000.0,031.1,024.2,16.0,0002.5,0010.86,0006.86,0006.44
2024-01-26 06:58:00,SystemResetWarning,0828.6,5.00,000.00,022.8,021.8,000.0,031.1,024.2,16.0,0002.3,0011.07,0006.92,0006.50
2024-01-26 06:59:00,SystemResetWarning,0828.5,5.00,000.00,022.8,021.8,000.0,031.1,024.2,15.9,0002.2,0011.20,0006.98,0006.56
